Regional Weather Roundup
Issued by NWS

Home | Current Version | Previous Version | Graphics & Text | Print | Product List | Glossary Off
Versions: 1 2 3 4 5 6 7 8 9 10 11 12 13 14 15 16 17 18 19 20 21 22 23 24 25 26 27 28 29 30 31 32 33 34 35 36 37 38 39 40 41 42 43 44 45 46 47 48 49 50

000
ASUS43 KTOP 230108
RWRKS

WEATHER ROUNDUP FOR KANSAS
NATIONAL WEATHER SERVICE GOODLAND KS
800 PM CDT MON MAY 22 2017

NOTE:  "FAIR" INDICATES FEW OR NO CLOUDS BELOW 12,000 FEET WITH NO
SIGNIFICANT WEATHER AND/OR OBSTRUCTIONS TO VISIBILITY.

KSZ001>006-013>018-027>032-041>047-230200-
NORTHWEST KANSAS

CITY           SKY/WX    TMP DP  RH WIND       PRES   REMARKS
GOODLAND       LGT RAIN  50  47  89 NW22G31   30.07R
HAYS           PTCLDY    65  52  62 S7        29.90S
HILL CITY      CLOUDY    70  44  39 N13       29.92R
RUSSELL        CLEAR     63  51  65 S6        29.88F
$$

KSZ061>065-074>080-084>089-230200-
SOUTHWEST KANSAS

CITY           SKY/WX    TMP DP  RH WIND       PRES   REMARKS
DODGE CITY     CLEAR     62  51  67 SW9       29.96S
ELKHART          N/A     64  42  44 SE5         N/A
GARDEN CITY    CLEAR     64  51  62 SW10      29.95S
GREAT BEND     CLEAR     65  50  58 S6        29.91F
PRATT          PTCLDY    61  50  67 W3        29.94S
$$

KSZ066>073-081>083-090>101-230200-
SOUTHEAST KANSAS

CITY           SKY/WX    TMP DP  RH WIND       PRES   REMARKS
CHANUTE        CLOUDY    65  56  72 S5        29.92F
COFFEYVILLE    CLOUDY    68  57  68 W3        29.92F
HUTCHINSON     PTCLDY    63  56  78 SW5       29.92S
MEDICINE LODGE   N/A     63  59  87 CALM      29.92F
NEWTON         CLOUDY    60  58  92 SW9       29.92S
PARSONS        MOCLDY    67  57  70 CALM      29.93F
WICHITA INTL   CLOUDY    61  60  97 SW6       29.92F
WICHITA JABRA  CLOUDY    61  57  87 SW9       29.92S
WICHITA MCCONL CLOUDY    61  57  86 W7        29.93R
WINFIELD       RAIN      61  57  87 SW12      29.96R FOG
$$

KSZ007>012-019>026-033>040-048>060-102>105-230200-
NORTHEAST KANSAS

CITY           SKY/WX    TMP DP  RH WIND       PRES   REMARKS
CONCORDIA      CLOUDY    57  52  83 CALM      29.93R
EMPORIA        CLOUDY    62  59  90 N3        29.91F
LAWRENCE       LGT RAIN  60  59  96 E7        29.92S
MANHATTAN      CLOUDY    62  57  83 SW6       29.92R
MARYSVILLE     CLOUDY    63  55  77 W3        29.93R
OLATHE IND     CLOUDY    60  55  83 NE6       29.92F
OLATHE EXE     CLOUDY    60  56  86 E6        29.92F
SALINA         PTCLDY    63  56  78 S5        29.91S
TOPEKA BILLARD CLOUDY    62  60  93 CALM      29.91S
TOPEKA FORBES  CLOUDY    61  60  97 E5        29.91S
$$



USA.gov is the U.S. government's official web portal to all federal, state and local government web resources and services.